Helicity
21 21 23 13 54 71 55 48 36 63 49 47 45 56 57 58 59 76 84 62 64 94 100 115 128 129 122 133 167 152 62 104 231 132 110 134 107 134 171 173 237 192 115 105 215
41 33 27 31 67 79 71 60 33 54 45 45 54 61 60 58 74 69 33 40 51 85 122 123 162 163 132 115 166 161 42 85 150 208 147 164 172 141 187 214 211 226 163 231 195
52 40 34 45 75 87 77 60 30 35 40 46 66 67 63 60 87 72 24 41 58 88 78 82 85 172 142 133 145 117 39 166 -34 190 173 173 220 231 167 258 193 151 165 270 175
56 53 47 62 67 93 85 61 30 30 41 53 66 69 49 77 164 45 19 44 36 108 78 85 107 146 141 120 138 128 49 135 159 201 178 262 245 261 251 249 276 124 173 238 152
60 73 69 94 74 102 79 63 34 32 39 63 65 59 74 132 93 36 35 47 57 66 65 66 70 85 126 96 132 123 89 -2 176 306 164 290 340 271 302 281 278 228 172 199 186
77 81 83 105 86 106 78 66 40 33 47 71 51 48 117 142 63 46 26 49 53 60 40 45 42 54 76 107 114 91 81 116 38 215 200 317 473 301 305 305 291 201 195 155 172
97 93 93 110 97 103 81 59 36 27 32 43 42 79 95 56 48 22 33 36 33 5 -13 61 57 68 48 107 123 137 83 98 -1 -27 181 343 457 444 386 311 257 211 151 141 122
98 94 97 107 119 113 70 40 51 21 7 13 60 78 70 40 17 19 41 43 5 11 -11 5 74 83 59 104 107 90 113 -46 -137 11 51 435 424 426 437 281 298 238 170 124 125
152 81 122 117 114 113 53 50 33 19 5 45 64 79 36 11 50 17 23 -14 -18 -12 -31 5 54 55 -79 122 124 178 42 -39 -60 -99 189 314 305 446 441 331 311 288 235 175 150
176 125 94 111 117 108 43 56 20 -3 1 53 32 53 49 60 36 6 31 -1 11 -9 -4 -2 25 47 13 91 173 160 121 76 -33 -38 23 127 428 385 417 448 353 322 310 228 161
190 106 103 102 112 99 78 98 85 50 27 63 39 59 61 29 28 -24 -41 -31 -3 8 -3 30 60 18 57 172 181 121 122 78 135 3 -29 15 144 452 383 392 387 312 261 250 166
231 103 100 99 115 124 111 89 41 13 36 16 40 79 56 47 45 2 -29 3 27 20 13 6 20 115 94 129 219 116 86 69 47 -43 34 87 64 485 393 264 302 270 273 233 177
229 102 111 101 138 104 83 44 -1 -31 7 48 89 96 88 57 61 48 1 10 77 45 26 10 -4 25 18 177 215 136 62 110 85 67 57 -9 99 291 346 205 216 168 141 146 140
221 102 105 94 125 102 54 2 -13 -29 7 -10 57 89 88 68 88 98 80 139 85 73 48 25 25 -114 139 253 118 144 121 127 121 109 -6 55 42 129 120 125 119 106 95 106 118
150 92 91 80 127 83 34 16 -14 -26 74 -43 26 78 112 64 60 96 106 113 106 16 68 91 49 20 195 213 148 188 116 47 107 186 54 57 101 166 163 65 -17 11 27 36 90
147 84 97 93 100 58 33 3 -9 27 -13 -65 -14 5 59 82 141 182 197 143 125 91 73 121 119 128 237 266 134 235 256 298 198 94 -44 32 126 83 94 99 91 27 39 48 35
188 68 129 88 23 59 21 -10 33 83 -99 -53 -27 -13 34 104 120 200 187 123 75 63 116 125 172 159 186 190 156 137 185 178 124 82 -22 5 74 114 70 99 57 98 65 48 45
138 96 73 58 91 76 -2 -4 59 16 -65 -56 -44 -14 45 83 87 139 124 109 110 76 42 72 83 97 145 101 65 105 111 176 158 88 113 96 56 94 90 114 105 78 109 80 53
154 197 96 83 79 45 -13 4 28 -12 -83 -44 -42 -5 19 65 69 100 112 108 73 46 66 77 57 129 90 106 116 82 164 92 110 125 131 43 134 60 74 106 94 79 89 108 105
264 173 114 95 121 44 -35 -6 -54 -44 -47 -44 -25 -2 -12 21 23 38 55 72 55 48 46 47 49 94 103 53 160 146 66 96 95 103 122 70 70 120 78 65 82 76 99 99 79
299 102 103 112 143 31 -16 -18 -30 -50 -45 -65 -55 -21 11 34 27 19 21 44 40 40 10 17 7 39 52 71 60 173 104 96 72 64 49 43 74 61 67 60 54 64 65 54 63
247 70 120 138 66 -7 -36 -45 -34 -40 -39 -47 -54 -45 -14 3 2 13 -2 11 36 29 16 15 25 71 26 56 46 53 57 57 75 85 97 85 91 77 83 75 81 76 111 143 135
262 166 143 131 36 8 28 -13 -56 -46 -43 -38 -30 -20 -12 -33 -25 1 5 33 45 -11 8 21 20 38 24 25 32 32 52 64 75 79 56 78 102 68 100 114 91 80 89 87 79
143 88 96 55 32 12 40 1 -32 -62 -51 -15 -35 -42 -52 -55 -38 -12 -6 -1 -2 14 13 8 -2 14 41 3 11 19 27 40 66 66 64 70 76 73 48 51 60 61 59 72 46
132 34 58 57 -12 44 53 -15 8 -14 -57 -35 -53 -68 -38 -27 -17 -8 -5 -8 -18 -21 -28 -20 5 10 43 39 25 19 19 24 37 37 14 32 37 74 66 45 35 37 48 26 18
49 15 96 47 30 26 64 -9 15 -10 -38 -19 -23 -24 -40 -27 -11 3 -5 -2 0 -8 -18 -10 -1 -10 -13 -32 -20 -17 28 28 38 48 14 20 2 55 63 51 79 91 65 30 6
77 47 71 70 92 78 47 29 -2 -41 -5 -51 -34 -23 -27 -23 -23 -22 -19 -10 -3 -3 -7 -14 -7 -9 -5 -12 -21 -26 8 47 44 49 52 32 23 51 41 49 62 65 51 46 59
Wind_Speed
59 62 63 60 56 57 60 58 52 46 45 45 43 41 37 35 35 32 32 29 35 48 53 53 52 52 50 63 67 70 110 84 105 95 101 68 71 62 54 54 58 63 61 57 38
57 60 61 59 56 57 56 56 47 47 43 44 42 39 36 37 36 35 29 35 43 45 51 58 63 61 64 64 70 86 109 85 78 71 84 69 65 61 60 63 65 62 51 38 44
54 58 59 58 54 55 53 53 46 47 40 41 41 38 38 37 40 35 30 34 41 40 49 58 62 67 79 70 77 84 114 97 84 73 65 67 59 55 60 77 67 60 44 38 42
52 57 56 57 58 52 51 48 47 46 41 39 39 40 39 33 55 32 30 37 42 33 42 50 60 70 78 90 82 93 99 86 65 69 63 66 58 57 59 65 56 42 32 30 36
49 52 53 55 55 50 51 45 46 43 42 37 38 39 35 40 40 29 33 39 35 31 43 50 57 69 87 76 82 98 86 101 88 68 62 60 60 56 54 49 44 40 38 36 36
44 47 46 51 51 50 50 41 44 39 41 36 36 37 38 50 29 29 37 35 33 40 48 48 52 65 70 82 83 80 100 84 104 80 56 64 59 52 52 45 45 45 42 41 38
41 40 44 47 47 46 47 44 44 37 36 36 34 36 40 37 28 32 32 31 39 43 46 43 48 52 64 72 83 96 85 92 96 93 49 56 60 58 50 48 46 48 45 44 43
34 37 42 45 46 48 42 43 39 37 33 31 32 35 42 29 28 25 29 32 40 39 40 33 35 48 56 63 66 92 85 110 93 98 63 55 71 55 47 50 50 47 45 40 42
30 33 38 42 43 45 40 37 38 36 33 31 35 36 42 31 27 22 29 43 40 37 39 26 30 47 54 72 78 84 100 108 80 81 70 58 72 56 48 48 52 49 48 51 44
25 28 35 38 41 40 37 35 35 36 35 35 33 42 32 35 15 13 38 39 41 41 39 41 47 46 55 80 91 98 88 85 92 66 64 71 76 66 54 56 55 52 51 52 49
27 21 32 34 39 34 31 34 34 35 37 43 39 39 27 15 17 27 28 30 41 39 40 42 48 52 51 65 65 82 88 84 67 51 58 61 80 72 64 61 63 58 52 50 51
30 14 26 29 33 30 26 23 28 34 42 35 34 32 22 24 25 24 22 24 34 35 38 41 43 50 51 50 62 76 87 92 64 49 49 52 60 60 67 67 62 65 61 56 51
22 12 21 26 28 25 22 25 30 34 44 43 40 36 28 31 31 27 27 23 33 32 38 35 36 28 51 54 66 74 82 77 72 38 29 42 56 56 70 72 72 72 69 66 60
17 15 18 22 24 22 21 24 30 35 45 51 46 37 30 30 31 29 23 30 34 40 43 38 53 58 46 52 58 72 65 55 52 50 51 45 51 63 57 62 81 82 77 76 71
18 3 9 11 21 22 24 30 33 36 61 41 44 30 31 32 26 30 24 30 31 32 40 42 46 43 35 35 46 61 50 51 42 46 40 45 57 50 52 82 77 76 82 84 76
18 4 6 16 20 23 29 34 38 42 57 44 40 41 34 32 36 25 31 38 33 26 31 36 30 19 14 21 23 30 41 41 45 50 70 45 49 57 55 51 57 76 77 76 72
17 4 8 13 35 25 33 40 37 46 47 49 48 44 36 33 36 35 38 44 48 53 20 19 15 29 25 20 13 29 46 55 61 61 68 47 50 57 51 56 58 65 66 68 69
12 5 22 37 14 27 44 36 39 42 47 47 48 42 48 33 39 37 43 41 28 42 41 32 21 18 23 36 22 35 42 42 53 52 52 43 56 51 41 44 39 35 43 53 60
15 26 28 36 10 25 47 36 40 49 52 55 48 47 47 42 42 41 45 38 36 28 44 40 34 28 16 27 30 34 31 25 28 29 39 45 47 49 40 34 31 28 30 33 36
24 36 37 36 10 51 45 37 43 48 55 52 50 45 48 44 42 35 33 32 36 30 36 41 31 27 27 20 30 27 25 34 28 45 50 45 48 45 43 42 37 38 38 39 41
29 45 45 38 38 51 47 43 46 51 50 47 47 50 46 44 44 41 33 29 29 32 35 37 33 34 30 25 27 32 34 30 28 34 44 44 48 39 44 35 31 33 38 40 42
48 51 49 46 55 52 49 48 50 54 47 45 48 47 46 44 41 40 39 33 29 29 31 31 39 27 27 32 32 30 32 33 42 44 39 42 43 38 31 28 33 36 32 32 36
42 41 45 50 58 58 49 53 53 54 50 49 49 44 43 42 40 40 36 32 28 30 34 32 38 46 27 31 36 36 36 33 32 37 45 48 46 33 26 28 30 34 37 40 42
46 51 49 58 49 56 58 59 57 53 50 48 50 47 46 42 38 40 38 34 32 29 14 24 34 35 36 11 27 33 38 38 39 48 51 53 52 42 39 40 43 43 43 50 53
45 49 52 71 70 62 54 60 59 55 47 49 47 45 46 43 42 41 37 36 33 31 32 30 32 24 26 28 28 31 32 33 40 42 50 54 59 56 58 63 61 58 64 69 66
48 43 44 45 57 71 56 63 61 55 52 51 50 49 45 44 39 43 41 38 35 34 34 32 34 32 30 26 19 15 40 39 39 44 59 64 74 64 67 62 64 67 66 64 68
38 34 38 45 52 64 63 65 62 56 45 49 52 51 48 46 46 47 40 38 39 39 37 35 36 32 30 23 21 19 17 32 40 41 50 60 63 54 66 66 66 68 64 63 65
Wind_Direction
342 341 341 343 345 347 348 348 349 351 353 354 355 356 358 357 354 346 333 328 316 299 294 289 281 274 266 254 247 241 231 238 230 231 231 240 240 245 249 237 236 236 237 234 227
342 342 342 343 346 347 350 350 349 352 355 355 356 358 358 355 348 338 337 327 316 309 296 283 272 267 257 253 245 235 230 240 233 239 234 241 240 240 239 235 235 235 246 223 224
340 341 343 343 346 348 351 351 351 352 357 357 358 0 358 356 345 344 350 341 328 319 304 285 270 263 251 248 240 237 230 234 235 239 241 239 236 243 235 232 235 231 231 219 216
336 339 343 344 344 348 352 353 353 354 356 359 360 359 358 1 337 355 353 342 332 326 313 292 267 253 246 239 238 234 232 233 238 239 242 236 238 236 239 240 242 232 216 206 215
332 340 343 345 345 350 353 354 355 354 357 360 1 2 4 349 341 360 353 346 345 333 312 291 265 247 238 240 236 231 231 224 230 235 240 239 231 234 238 241 238 229 221 215 220
327 337 345 347 348 352 353 356 356 356 359 3 5 6 359 341 6 7 354 356 346 329 306 292 262 244 240 235 229 230 226 232 226 230 235 231 229 230 237 240 235 232 227 226 226
324 335 342 347 349 353 355 356 356 358 2 7 10 6 354 348 11 3 8 10 329 297 266 267 255 243 234 233 231 223 223 225 223 225 238 233 226 226 238 235 233 236 237 233 233
322 333 342 347 351 352 357 358 4 5 7 12 15 11 354 15 16 20 19 8 302 317 286 296 267 243 234 234 227 217 223 212 217 221 241 228 219 228 238 232 234 240 243 242 239
320 330 341 347 351 355 358 6 9 17 22 27 20 14 3 21 16 19 15 285 276 255 248 306 285 244 228 223 215 213 213 212 223 226 233 233 221 229 239 236 236 242 248 249 249
311 329 339 347 352 359 3 11 21 25 34 31 28 14 28 22 62 55 315 278 247 259 240 205 203 220 229 213 210 206 210 213 217 224 226 231 227 230 239 238 239 245 249 251 252
309 327 339 348 353 7 15 27 39 36 35 28 29 30 58 118 137 136 167 227 258 237 213 221 217 223 232 209 216 206 205 208 215 226 231 231 237 229 236 237 238 243 248 252 254
304 324 339 351 358 15 29 53 49 46 39 45 55 74 110 113 106 138 194 160 210 203 205 207 216 220 208 214 209 208 207 206 212 223 237 236 246 233 237 238 240 241 246 251 255
295 323 344 353 9 23 48 51 50 56 48 54 74 93 112 104 108 115 128 200 176 201 197 206 201 226 206 213 210 207 205 206 208 227 254 240 250 239 242 242 244 245 247 250 254
285 304 338 356 19 52 66 63 64 66 56 56 70 98 112 109 105 108 168 173 162 164 161 175 161 161 205 210 207 203 209 206 210 236 242 254 240 234 233 243 244 244 246 247 252
268 309 349 16 35 91 77 74 74 77 35 82 87 128 113 109 110 113 183 168 160 170 175 167 172 174 195 203 208 201 204 209 219 233 242 255 238 240 241 226 232 242 246 246 253
257 145 344 339 360 63 77 83 88 70 49 87 97 99 111 112 106 129 150 143 154 164 151 166 176 178 218 213 198 195 198 211 226 237 242 255 244 239 243 250 257 248 244 248 255
237 176 289 338 155 86 93 117 85 68 101 97 98 104 111 119 110 129 131 130 131 132 170 184 192 173 187 183 208 191 200 214 226 234 238 247 249 250 252 257 262 248 249 253 256
189 215 270 258 63 93 129 125 83 105 106 115 109 109 108 129 118 128 128 132 137 147 146 164 201 242 241 199 211 211 218 222 225 230 234 242 241 251 267 266 269 266 262 257 255
161 242 255 240 65 96 152 124 106 118 117 114 112 111 115 124 133 128 124 134 141 145 141 147 161 182 244 220 224 223 225 265 237 246 233 240 252 262 262 265 269 277 278 277 279
223 232 236 232 264 187 162 142 129 125 117 120 107 119 117 124 133 144 141 142 138 142 145 136 166 180 198 242 236 232 247 244 255 235 244 255 257 260 260 258 267 269 277 283 281
212 219 222 224 219 187 161 147 143 137 126 120 117 118 123 123 125 134 149 159 157 141 131 139 169 193 204 241 236 243 249 262 267 263 256 258 262 281 275 280 282 286 287 286 283
213 211 214 213 194 189 170 154 147 137 139 124 125 128 125 127 123 126 126 147 171 154 138 143 144 192 233 231 241 269 263 269 260 260 270 266 269 296 289 283 276 276 279 285 290
215 214 218 213 196 184 183 160 150 138 137 130 126 132 134 128 124 127 129 164 180 148 132 149 141 122 198 238 239 257 270 281 284 281 271 269 272 300 305 298 291 283 289 293 294
210 205 211 209 209 192 180 160 146 151 139 137 130 132 131 123 127 130 133 136 145 186 43 178 149 143 125 232 278 272 268 276 282 275 273 272 274 288 296 293 290 289 292 294 292
214 213 212 199 193 189 190 166 141 141 149 142 137 132 131 124 122 126 131 135 135 139 140 137 138 164 321 301 311 312 303 297 285 286 279 280 279 284 286 286 284 285 286 288 289
212 217 216 212 202 182 192 168 146 149 143 143 134 132 130 123 126 124 126 130 130 141 137 131 138 140 142 112 79 82 304 304 304 295 279 277 271 287 285 288 286 284 286 288 288
223 223 214 210 205 193 189 166 153 145 166 151 135 128 122 124 123 122 127 127 130 126 125 126 126 127 122 149 146 152 103 332 311 308 298 291 291 304 293 291 288 287 288 288 289